Location: Gleizolles
(44.4833°N, 6.7667°E)
Time: 16:01:36
(UTC+00:00)

BREEZE M DEB (TANK) - Pass Details

Date: 09 April 2020
Orbit: 304 x 11878 km, 49.5° (Epoch: 27 May)

Event Time Altitude Azimuth Distance (km) Brightness Sun altitude
Rises 19:17:37 0° 216° (SW) 2,131 5.5 -12.2°
Reaches altitude 10° 19:19:05 10° 206° (SSW) 1,474 4.5 -12.4°
Maximum altitude 19:21:49 40° 133° (SE) 907 2.9 -12.8°
Drops below altitude 10° 19:28:14 10° 66° (ENE) 3,485 6.0 -13.9°
Sets 19:33:44 0° 61° (ENE) 5,873 7.2 -14.7°
